SCP
0 0 0 0 0 1 1 1 0 1 1 1 1 0 0 0 0 0 0 0 0 0 0 0 0 0 0 0 0 0 0 0
0 0 0 0 0 1 1 1 1 1 0 0 0 0 0 0 0 0 0 0 0 0 0 0 0 0 0 0 0 0 0 0
0 0 0 1 0 1 1 1 1 0 0 0 0 0 0 0 0 0 0 0 0 0 0 0 0 0 0 0 0 0 0 0
0 0 0 0 0 1 1 1 0 0 0 0 0 0 0 0 0 0 0 0 0 0 0 0 0 0 0 0 0 0 0 0
0 0 0 0 0 1 1 0 0 0 0 0 0 0 0 0 0 0 0 0 0 0 0 0 0 0 0 0 0 0 0 0
0 0 0 0 0 0 0 0 0 0 0 0 0 0 0 0 0 0 0 0 0 0 0 0 0 0 0 0 0 0 0 0
0 0 0 0 0 0 0 0 0 0 0 0 0 0 0 0 0 0 0 0 0 0 0 0 0 0 0 0 0 0 0 0
0 0 0 0 0 0 0 0 0 0 0 0 0 0 0 0 0 0 0 0 0 0 0 0 0 0 0 0 0 0 0 0
0 0 0 0 0 0 0 0 0 0 0 0 0 0 0 0 0 0 -0 -0 0 0 0 0 0 0 0 0 0 0 0 0
0 0 0 0 0 0 -0 -0 -0 -0 0 0 -0 0 0 0 0 -0 0 -0 0 0 0 0 0 0 0 0 0 0 0 0
0 0 0 0 0 0 0 0 0 0 0 0 0 0 0 0 0 0 0 0 0 0 0 0 0 0 0 0 0 0 0 0
0 0 0 0 0 0 0 0 0 0 0 0 0 0 0 0 0 0 0 0 0 0 0 0 0 0 0 0 0 0 0 0
0 0 0 0 0 0 0 0 0 0 0 0 0 0 0 0 0 0 0 0 0 0 0 0 0 0 0 0 0 0 0 0
0 0 0 0 0 0 0 0 0 0 0 0 0 0 0 0 0 0 0 0 0 0 0 0 0 0 0 0 0 0 0 0
0 0 0 0 0 0 0 0 0 0 0 0 0 0 0 0 0 0 0 0 0 0 0 0 0 0 0 0 0 0 0 0
0 0 0 0 0 0 0 0 0 0 0 0 0 0 0 0 0 0 0 0 0 0 0 0 0 0 0 0 0 0 0 0
0 0 0 0 0 0 0 0 0 0 0 0 0 0 0 0 0 0 0 0 0 0 0 0 0 0 0 0 0 0 0 0
0 0 0 0 0 0 0 0 0 0 0 0 0 0 0 0 0 0 0 0 0 0 0 0 0 0 0 0 0 0 0 0
0 0 0 0 0 0 0 0 0 0 0 0 0 0 0 0 0 0 0 0 0 0 0 0 0 0 0 0 0 0 0 0
Wind_Speed_500mb
31 38 50 51 52 55 59 72 70 72 76 77 73 76 74 72 67 65 64 62 56 55 53 48 42 39 37 37 37 36 27 29
23 26 41 45 47 61 68 68 69 76 80 79 78 74 73 70 68 67 65 60 62 61 52 49 45 41 37 38 37 36 30 33
16 16 30 40 45 56 63 66 69 72 74 72 69 72 71 73 73 68 67 66 61 52 49 49 46 44 42 41 40 34 32 38
15 14 18 32 42 50 62 70 68 61 68 72 74 73 72 72 70 69 65 59 55 51 46 45 43 41 39 40 40 36 31 36
14 16 14 19 32 43 53 60 65 57 66 72 75 70 74 72 73 65 52 49 46 45 49 48 40 38 37 39 40 31 22 28
6 9 14 23 30 38 48 53 60 63 62 67 72 72 75 75 68 64 60 55 48 46 42 40 40 36 27 30 35 35 31 23
5 6 4 3 13 25 39 47 50 54 62 66 73 75 70 65 60 62 53 40 31 23 24 23 19 16 21 21 21 25 32 33
10 10 10 9 11 16 22 33 42 49 53 55 57 58 48 34 28 22 23 20 13 7 19 17 6 7 13 10 15 13 17 17
16 17 18 17 13 13 15 19 23 19 19 23 25 28 22 18 18 10 12 15 14 21 28 24 31 38 47 49 48 44 43 41
18 16 18 22 22 22 33 40 41 39 39 39 35 29 26 23 16 29 33 28 31 29 29 33 34 34 36 42 47 54 55 49
26 25 28 27 35 38 37 36 36 40 43 45 44 41 38 37 35 33 28 30 26 20 21 18 18 17 19 24 26 29 31 35
35 34 34 34 33 31 30 33 36 40 40 37 36 37 37 32 30 29 26 17 17 17 19 20 21 18 18 18 19 27 31 29
36 37 36 35 32 29 28 30 35 36 41 38 37 37 34 31 29 30 30 27 18 15 16 16 15 18 19 20 25 33 38 35
36 39 37 37 36 34 34 34 34 36 38 40 39 36 34 32 30 28 26 25 22 20 21 18 13 10 10 16 17 21 25 27
34 41 42 40 40 40 39 36 36 41 43 41 39 36 33 33 30 27 26 25 25 28 24 18 13 10 12 14 16 18 23 29
50 49 45 44 42 43 44 44 47 52 49 42 38 38 37 34 33 31 29 31 31 28 23 17 13 11 12 13 17 22 29 33
36 46 49 49 50 50 50 50 54 57 53 46 44 45 42 38 36 36 38 35 34 30 24 19 17 17 18 18 22 28 29 27
48 50 54 59 56 53 52 58 61 64 61 59 55 49 45 44 42 42 39 37 32 29 28 24 21 20 24 23 22 27 25 23
42 41 45 51 61 54 51 51 67 70 68 69 65 61 56 54 51 46 42 40 36 32 29 25 26 25 26 25 26 25 23 22
Wind_Direction_500mb
269 241 225 223 218 215 209 224 222 218 223 224 223 229 229 230 227 225 227 226 226 226 228 228 225 229 229 219 213 204 188 193
261 239 224 220 215 218 216 229 224 218 223 224 228 234 228 227 226 226 227 227 223 222 227 229 228 233 232 227 219 208 185 182
265 237 221 219 221 220 222 233 232 227 228 233 232 229 224 221 226 225 224 225 223 222 229 231 230 232 231 225 217 198 191 186
283 289 241 227 225 228 226 229 238 239 234 231 228 226 220 219 223 225 221 220 222 222 226 228 229 230 227 221 213 202 198 199
311 304 268 242 237 226 235 241 242 239 240 232 229 224 217 216 217 220 219 216 215 218 221 219 218 222 223 217 211 202 211 214
309 290 260 249 228 222 227 235 227 230 237 235 224 216 213 216 210 209 213 213 207 211 214 215 212 213 223 223 219 214 219 212
77 62 34 236 225 219 226 230 227 232 231 233 225 221 218 217 210 206 202 202 200 207 213 194 195 234 233 235 243 229 236 242
144 134 125 142 172 200 213 213 217 217 218 221 221 217 214 204 197 197 205 199 191 270 288 289 289 236 250 258 237 216 217 229
157 147 139 135 147 166 180 186 196 204 208 208 193 188 159 160 137 111 155 148 161 179 201 202 190 196 200 208 216 220 230 247
154 149 145 141 146 140 125 125 132 136 139 143 139 158 156 185 170 184 204 187 185 176 189 203 205 209 219 228 238 238 244 249
160 155 146 144 141 141 144 151 155 156 160 162 163 165 167 173 175 177 190 173 184 180 188 197 211 213 220 233 243 245 235 226
171 163 159 158 157 158 158 160 167 167 168 169 168 167 162 165 168 175 183 198 206 201 192 196 203 206 210 224 227 232 231 228
180 173 172 175 176 173 171 171 173 172 172 170 170 169 172 180 191 204 198 200 197 192 196 196 206 219 225 242 247 244 241 242
187 187 187 188 190 191 186 182 181 182 181 184 189 193 197 200 206 205 194 192 189 188 189 193 215 231 244 253 235 236 239 244
207 207 202 200 199 202 199 194 192 193 194 196 196 196 202 202 197 192 189 186 185 181 183 192 211 239 257 253 245 247 252 255
211 215 215 211 209 210 209 206 202 201 201 203 209 209 202 197 193 189 185 184 180 181 181 187 211 227 245 260 263 260 263 268
238 236 229 222 217 217 214 210 210 209 211 211 209 203 200 196 192 190 187 185 188 187 184 190 210 227 241 255 266 271 267 260
287 264 247 231 217 219 215 214 213 213 211 210 208 207 204 201 200 197 193 189 194 201 207 216 228 240 250 259 262 266 262 251
289 284 273 252 230 226 229 216 215 209 208 209 208 207 206 203 204 203 192 195 199 207 212 221 235 247 252 259 265 261 256 242
Wind_Speed_850mb
31 38 50 51 52 55 59 72 70 72 76 77 73 76 74 72 67 65 64 62 56 55 53 48 42 39 37 37 37 36 27 29
23 26 41 45 47 61 68 68 69 76 80 79 78 74 73 70 68 67 65 60 62 61 52 49 45 41 37 38 37 36 30 33
16 16 30 40 45 56 63 66 69 72 74 72 69 72 71 73 73 68 67 66 61 52 49 49 46 44 42 41 40 34 32 38
15 14 18 32 42 50 62 70 68 61 68 72 74 73 72 72 70 69 65 59 55 51 46 45 43 41 39 40 40 36 31 36
14 16 14 19 32 43 53 60 65 57 66 72 75 70 74 72 73 65 52 49 46 45 49 48 40 38 37 39 40 31 22 28
6 9 14 23 30 38 48 53 60 63 62 67 72 72 75 75 68 64 60 55 48 46 42 40 40 36 27 30 35 35 31 23
5 6 4 3 13 25 39 47 50 54 62 66 73 75 70 65 60 62 53 40 31 23 24 23 19 16 21 21 21 25 32 33
10 10 10 9 11 16 22 33 42 49 53 55 57 58 48 34 28 22 23 20 13 7 19 17 6 7 13 10 15 13 17 17
16 17 18 17 13 13 15 19 23 19 19 23 25 28 22 18 18 10 12 15 14 21 28 24 31 38 47 49 48 44 43 41
18 16 18 22 22 22 33 40 41 39 39 39 35 29 26 23 16 29 33 28 31 29 29 33 34 34 36 42 47 54 55 49
26 25 28 27 35 38 37 36 36 40 43 45 44 41 38 37 35 33 28 30 26 20 21 18 18 17 19 24 26 29 31 35
35 34 34 34 33 31 30 33 36 40 40 37 36 37 37 32 30 29 26 17 17 17 19 20 21 18 18 18 19 27 31 29
36 37 36 35 32 29 28 30 35 36 41 38 37 37 34 31 29 30 30 27 18 15 16 16 15 18 19 20 25 33 38 35
36 39 37 37 36 34 34 34 34 36 38 40 39 36 34 32 30 28 26 25 22 20 21 18 13 10 10 16 17 21 25 27
34 41 42 40 40 40 39 36 36 41 43 41 39 36 33 33 30 27 26 25 25 28 24 18 13 10 12 14 16 18 23 29
50 49 45 44 42 43 44 44 47 52 49 42 38 38 37 34 33 31 29 31 31 28 23 17 13 11 12 13 17 22 29 33
36 46 49 49 50 50 50 50 54 57 53 46 44 45 42 38 36 36 38 35 34 30 24 19 17 17 18 18 22 28 29 27
48 50 54 59 56 53 52 58 61 64 61 59 55 49 45 44 42 42 39 37 32 29 28 24 21 20 24 23 22 27 25 23
42 41 45 51 61 54 51 51 67 70 68 69 65 61 56 54 51 46 42 40 36 32 29 25 26 25 26 25 26 25 23 22
Wind_Direction_850mb
269 241 225 223 218 215 209 224 222 218 223 224 223 229 229 230 227 225 227 226 226 226 228 228 225 229 229 219 213 204 188 193
261 239 224 220 215 218 216 229 224 218 223 224 228 234 228 227 226 226 227 227 223 222 227 229 228 233 232 227 219 208 185 182
265 237 221 219 221 220 222 233 232 227 228 233 232 229 224 221 226 225 224 225 223 222 229 231 230 232 231 225 217 198 191 186
283 289 241 227 225 228 226 229 238 239 234 231 228 226 220 219 223 225 221 220 222 222 226 228 229 230 227 221 213 202 198 199
311 304 268 242 237 226 235 241 242 239 240 232 229 224 217 216 217 220 219 216 215 218 221 219 218 222 223 217 211 202 211 214
309 290 260 249 228 222 227 235 227 230 237 235 224 216 213 216 210 209 213 213 207 211 214 215 212 213 223 223 219 214 219 212
77 62 34 236 225 219 226 230 227 232 231 233 225 221 218 217 210 206 202 202 200 207 213 194 195 234 233 235 243 229 236 242
144 134 125 142 172 200 213 213 217 217 218 221 221 217 214 204 197 197 205 199 191 270 288 289 289 236 250 258 237 216 217 229
157 147 139 135 147 166 180 186 196 204 208 208 193 188 159 160 137 111 155 148 161 179 201 202 190 196 200 208 216 220 230 247
154 149 145 141 146 140 125 125 132 136 139 143 139 158 156 185 170 184 204 187 185 176 189 203 205 209 219 228 238 238 244 249
160 155 146 144 141 141 144 151 155 156 160 162 163 165 167 173 175 177 190 173 184 180 188 197 211 213 220 233 243 245 235 226
171 163 159 158 157 158 158 160 167 167 168 169 168 167 162 165 168 175 183 198 206 201 192 196 203 206 210 224 227 232 231 228
180 173 172 175 176 173 171 171 173 172 172 170 170 169 172 180 191 204 198 200 197 192 196 196 206 219 225 242 247 244 241 242
187 187 187 188 190 191 186 182 181 182 181 184 189 193 197 200 206 205 194 192 189 188 189 193 215 231 244 253 235 236 239 244
207 207 202 200 199 202 199 194 192 193 194 196 196 196 202 202 197 192 189 186 185 181 183 192 211 239 257 253 245 247 252 255
211 215 215 211 209 210 209 206 202 201 201 203 209 209 202 197 193 189 185 184 180 181 181 187 211 227 245 260 263 260 263 268
238 236 229 222 217 217 214 210 210 209 211 211 209 203 200 196 192 190 187 185 188 187 184 190 210 227 241 255 266 271 267 260
287 264 247 231 217 219 215 214 213 213 211 210 208 207 204 201 200 197 193 189 194 201 207 216 228 240 250 259 262 266 262 251
289 284 273 252 230 226 229 216 215 209 208 209 208 207 206 203 204 203 192 195 199 207 212 221 235 247 252 259 265 261 256 242